Weather in Verkhniy Lomovets

Russia / Lipetsk Oblast     52°14′32″N   38°36′33″E
temp.,
°C
wind,
m/s
gust,
m/s
humid.,
%
clouds,
%
prec.,
mm/h
press.,
hPa
HPBL,
m
8 august, mon
mon800:00+21ene3343100 0.0 101839
03:00+21e344396 0.0 101860
06:00+20ene225398 0.0 101929
09:00+24se1246100 0.0 1019237
12:00+28sse233669 0.0 1019546
15:00+31s232520 0.0 10183134
18:00+29ese233842 0.0 101876
21:00+24se333136 0.0 101823
9 august, tue
tue900:00+23ese344196 0.0 101849
03:00+21sse224356 0.0 101818
06:00+21e114896 0.0 101811
09:00+25se2243100 0.0 1018191
12:00+29sse123396 0.0 10181045
15:00+29wnw323952 0.0 1018531
18:00+28nw234798 0.0 1017215
21:00+23n335680 0.0 101745
10 august, wed
wed1000:00+19ne4972100 0.0 1018224
03:00+18nne498155 0.0 1018269
06:00+18ne5118481 0.0 1018340
09:00+19ne6117784 0.0 1019408
12:00+25nne665458 0.0 10191157
15:00+27nne7750100 0.0 10181330
18:00+24nne7960100 0.1 1018742
21:00+20nne6127099 0.1 1019417
11 august, thu
thu1100:00+18ne61379100 0.0 1020362
03:00+17ne61283100 0.0 1020350
06:00+17ne61385100 0.0 1021391
09:00+21ene71062100 0.0 1021635
12:00+25ene784771 0.0 10211034
15:00+27ene664120 0.0 10211354
18:00+26ne58453 0.0 1021602
21:00+21ne512530 0.0 1022271
12 august, fri
fri1200:00+19ne411540 0.0 1023217
03:00+17ne49540 0.0 1023160
06:00+16ne47615 0.0 1024131
09:00+22ne46480 0.0 1024427
12:00+27ne44380 0.0 10231124
15:00+28ne33350 0.0 10221527
18:00+27nne46422 0.0 1021275
21:00+21ne49490 0.0 1022142